Regional Weather Roundup
Issued by NWS

Home | Current Version | Previous Version | Graphics & Text | Print | Product List | Glossary On
Versions: 1 2 3 4 5 6 7 8 9 10 11 12 13 14 15 16 17 18 19 20 21 22 23 24 25 26 27 28 29 30 31 32 33 34 35 36 37 38 39 40 41 42 43 44 45 46 47 48 49 50
426
ASUS43 KDMX 250008
RWRIA

WEATHER ROUNDUP FOR IOWA
NATIONAL WEATHER SERVICE DES MOINES IA
700 PM CDT WED AUG 24 2016

NOTE: "FAIR" INDICATES FEW OR NO CLOUDS BELOW 12,000 FEET WITH NO
SIGNIFICANT WEATHER AND/OR OBSTRUCTIONS TO VISIBILITY.

* - THESE STATIONS ARE NOT NWS STATIONS...THUS NOT UNDER NWS
QUALITY CONTROL.  THEY ALSO DO NOT REPORT WEATHER SUCH
AS PRECIPITATION OR FOG.

IAZ001>003-012>014-020>022-031>034-043>046-250100-
   NORTHWEST IOWA

CITY           SKY/WX    TMP DP  RH WIND       PRES   REMARKS
CARROLL *      CLOUDY    72  64  78 NW6       30.03R
CHEROKEE *     CLOUDY    71  65  83 W5        30.06R
DENISON *      CLOUDY    72  66  83 NW5       30.03S HAZE
LE MARS *      CLOUDY    70  63  78 CALM      30.06S
ORANGE CITY *  CLOUDY    70  64  83 W3        30.06S
SHELDON *      CLOUDY    68  63  83 CALM      30.04S
SIOUX CITY     CLOUDY    70  63  78 CALM      30.06S
6HR MIN TEMP:  70; 6HR MAX TEMP:  74;

SPENCER        CLOUDY    70  61  73 W7        30.04S
6HR MIN TEMP:  70; 6HR MAX TEMP:  80;

STORM LAKE *   CLOUDY    70  64  83 NW8       30.06R
$$

IAZ055>058-069>071-079>083-090>094-250100-
   SOUTHWEST IOWA

CITY           SKY/WX    TMP DP  RH WIND       PRES   REMARKS
ATLANTIC *     CLOUDY    72  63  73 NW10      30.01R
AUDUBON *      LGT RAIN  72  64  78 NW8       30.02F
CLARINDA *       N/A     73  68  83 MISG      30.04S
COUNCIL BLFS * CLOUDY    70  64  83 N8        30.03F
CRESTON *      PTSUNNY   70  68  94 CALM      30.02R
HARLAN  *      CLOUDY    70  66  88 NW10      30.07S FOG
LAMONI         CLOUDY    77  72  84 W3        30.01S
6HR MIN TEMP:  77; 6HR MAX TEMP:  80;

RED OAK *      CLOUDY    72  66  83 CALM      30.03R
SHENANDOAH *   CLOUDY    73 -36   1 NW6       30.03R HAZE
$$

IAZ047>049-059>061-072>074-084-250100-
   CENTRAL IOWA

CITY           SKY/WX    TMP DP  RH WIND       PRES   REMARKS
AMES           CLOUDY    76  70  82 N9        30.00R
6HR MIN TEMP:  76; 6HR MAX TEMP:  81;

ANKENY *         N/A    N/A N/A N/A MISG        N/A
BOONE *        CLOUDY    73  68  83 NW5       30.00R
CHARITON *       N/A     73  68  83 MISG      30.00R
DES MOINES     RAIN      73  70  90 NE13G24   29.98S FOG
6HR MIN TEMP:  73; 6HR MAX TEMP:  85; 6HR PCP:  0.45;

GRINNELL*      HVY RAIN  74  71  91 W7        29.99R VSB 1
KNOXVILLE *    LGT RAIN  68  66  94 N23G31    29.98R
MARSHALLTOWN   CLOUDY    74  73  97 W3        29.98R
6HR MIN TEMP:  74; 6HR MAX TEMP:  77;

NEWTON *       CLOUDY    73  73 100 SW7       30.00R FOG
PERRY *          N/A     74  67  79 N3        30.01R
$$

IAZ004>006-015-016-023>025-035-036-250100-
   NORTH CENTRAL IOWA

CITY           SKY/WX    TMP DP  RH WIND       PRES   REMARKS
ALGONA *       CLOUDY    73  63  68 NW5       30.03R
ESTHERVILLE    MOSUNNY   69  65  86 NW6       30.02F
6HR MIN TEMP:  69; 6HR MAX TEMP:  76;

FORT DODGE *   CLOUDY    73  63  68 CALM      30.01F
MASON CITY     CLOUDY    73  64  73 NW9       30.01F
6HR MIN TEMP:  73; 6HR MAX TEMP:  79;

FOREST CITY *    N/A    N/A N/A N/A MISG        N/A
WEBSTER CITY * CLOUDY    73  68  83 NW3       29.98F
IOWA FALLS *     N/A     73  68  82 NW5       30.01R
$$

IAZ007>011-017>019-026>030-037>042-050>054-066-250100-
   NORTHEAST IOWA

CITY           SKY/WX    TMP DP  RH WIND       PRES   REMARKS
CEDAR RAPIDS   CLOUDY    77  74  90 NW7       29.95F
6HR MIN TEMP:  77; 6HR MAX TEMP:  85;

CHARLES CITY * CLOUDY    75  72  88 NW5       29.99S
CLINTON *      CLEAR     80  72  76 W8        29.96S HX  84
DECORAH *      CLOUDY    75  70  83 NW7       29.96R
DUBUQUE        PTCLDY    78  71  79 W9        29.97R HX  80
6HR MIN TEMP:  78; 6HR MAX TEMP:  85;

MONTICELLO *   CLOUDY    77  72  83 NW10      29.95S
OELWEIN *        N/A     75  72  88 W8        29.98S
WATERLOO       PTCLDY    75  71  87 W3        29.96F
6HR MIN TEMP:  75; 6HR MAX TEMP:  80;

$$

IAZ064-065-067-068-078-250100-
   EAST CENTRAL IOWA

CITY           SKY/WX    TMP DP  RH WIND       PRES   REMARKS
DAVENPORT      MOCLDY    80  69  69 W6        29.96F HX  83
6HR MIN TEMP:  80; 6HR MAX TEMP:  85;

IOWA CITY      CLOUDY    81  71  71 SW3       29.96F HX  85
6HR MIN TEMP:  81; 6HR MAX TEMP:  86;

MT. PLEASANT * LGT RAIN  82  78  88 CALM      29.95S HX  90
MUSCATINE *    PTCLDY    82  73  74 CALM      29.95F HX  88
QUAD CITIES    CLOUDY    82  71  69 W6        29.95S HX  86
6HR MIN TEMP:  82; 6HR MAX TEMP:  87;

$$

IAZ062-063-075>077-085>089-095>099-250100-
   SOUTHEAST IOWA

CITY           SKY/WX    TMP DP  RH WIND       PRES   REMARKS
BURLINGTON     CLOUDY    81  77  88 CALM      29.95F HX  88
6HR MIN TEMP:  80; 6HR MAX TEMP:  86;

FAIRFIELD *    CLOUDY    79  75  89 CALM      29.96R HX  82
FORT MADISON * CLOUDY    81  75  83 S3        29.97S HX  86
KEOKUK *       CLOUDY    81  75  83 SW6       29.95S HX  86
OSKALOOSA *      N/A     78  74  88 SW5       29.96F HX  80
CENTERVILLE *  MOCLDY    77  73  88 SW8       30.01R
OTTUMWA        CLOUDY    79  73  82 SW3       29.94S HX  82
6HR MIN TEMP:  79; 6HR MAX TEMP:  85;

WASHINGTON *   MOCLDY    81  75  83 W3        29.96S HX  86
$$

ABBREVIATIONS USED IN REMARKS
   TC - TEMPERATURES IN CELSIUS
  WCI - WIND CHILL INDEX
   HX - HEAT INDEX
  VSB - VISIBILITY
$$





USA.gov is the U.S. government's official web portal to all federal, state and local government web resources and services.